User: anonymous   Login
Location: Unspecified
(0.0000°N, 0.0000°E)
Time: 01:05:13
(UTC+01:00)
Language:

Ariane 42L R/B - Orbit

View from above orbital plane
View from above orbital plane
View from above satellite
View from above satellite

Ground track
Ground track

The orbit data is extracted from the following two-line orbital elements,

1 26299U 00020B   16036.01791487  .00015625  00000-0  16158-2 0  9995
2 26299   7.5541  12.4099 5999300 106.2945 324.4681  4.07423767198623
Epoch (UTC): 05 February 2016 00:25:47
Eccentricity: 0.5999300
inclination: 7.5541°
perigee height: 246 km
apogee height: 20115 km
right ascension of ascending node: 12.4099°
argument of perigee: 106.2945°
revolutions per day: 4.07423767
mean anomaly at epoch: 324.4681°
orbit number at epoch: 19862

The dashed part of the orbit path shows where the satellite is in the earth's shadow,  

DLR